Date String (YYYY-MM-DD hh:mm:ss) UTC,Instrument flags,Ambient pressure (hPa),Sample flow (lpm),Bypass flow (lpm),Sample temperature (°C),Ambient temperature (°C),ASC tube jacket temperature (°C),LED temperature (°C),Box temperature (°C),Sample RH (%),Span deviation,Mass concentration (μg/m³),Mass concentration (μg/m³),Mass concentration (μg/m³)
DateTimeUTC,F1_M11,P_M11,Q1_M11,Q2_M11,T1_M11,T2_M11,T3_M11,T4_M11,T5_M11,U1_M11,ZSPAN_M11,X2_M11,X0_M11,X1_M11
2023-02-14 10:00:00,,0800.8,5.00,0.00,22.1,20.1,00.0,31.1,23.8,12.1,0000.0,0002.09,0007.32,0001.37
2023-02-14 10:01:00,,0800.8,5.00,0.00,22.0,20.1,00.0,31.1,23.8,12.0,0000.0,0002.08,0005.91,0001.40
2023-02-14 10:02:00,,0800.9,5.00,0.00,22.0,20.1,00.0,31.0,23.7,12.1,0000.0,0002.11,0006.82,0001.41
2023-02-14 10:03:00,,0800.9,5.00,0.00,22.0,20.1,00.0,31.0,23.7,12.1,0000.0,0002.15,0006.37,0001.43
2023-02-14 10:04:00,,0800.9,5.02,0.00,22.0,20.1,00.0,31.0,23.6,12.0,0000.0,0002.11,0006.09,0001.44
2023-02-14 10:05:00,,0800.9,4.99,0.00,22.0,20.8,00.0,31.0,23.8,12.0,0000.0,0002.08,0005.86,0001.45
2023-02-14 10:06:00,,0801.0,5.03,0.00,22.1,22.2,00.0,30.9,24.1,11.8,0000.0,0002.08,0004.73,0001.45
2023-02-14 10:07:00,,0801.0,4.98,0.00,22.3,23.1,00.0,30.9,24.4,11.6,0000.0,0002.08,0004.79,0001.45
2023-02-14 10:08:00,,0800.9,5.03,0.00,22.4,22.9,00.0,31.0,24.4,11.5,0000.0,0002.11,0005.64,0001.45
2023-02-14 10:09:00,,0800.9,4.99,0.00,22.4,22.4,00.0,31.1,24.4,11.6,0000.0,0002.16,0005.87,0001.46
2023-02-14 10:10:00,,0800.9,4.99,0.00,22.4,22.1,00.0,31.1,24.3,11.5,0000.0,0002.17,0005.89,0001.46
2023-02-14 10:11:00,,0800.9,5.02,0.00,22.4,21.8,00.0,31.1,24.3,11.5,0000.0,0002.14,0005.73,0001.45
2023-02-14 10:12:00,,0801.0,5.00,0.00,22.4,21.5,00.0,31.2,24.3,11.4,0000.0,0002.13,0005.72,0001.44
2023-02-14 10:13:00,,0801.0,5.00,0.00,22.4,21.3,00.0,31.2,24.2,11.6,0000.0,0002.09,0004.49,0001.44
2023-02-14 10:14:00,,0801.1,5.00,0.00,22.4,21.0,00.0,31.2,24.1,11.9,0000.0,0002.08,0004.60,0001.48
2023-02-14 10:15:00,,0801.2,4.99,0.00,22.4,20.8,00.0,31.2,24.1,12.3,0000.0,0002.19,0005.20,0001.60
2023-02-14 10:16:00,,0801.1,5.00,0.00,22.3,20.7,00.0,31.2,24.1,12.6,0000.0,0002.45,0005.54,0001.83
2023-02-14 10:17:00,,0801.1,5.02,0.00,22.3,20.6,00.0,31.2,24.0,12.7,0000.0,0002.80,0005.92,0002.14
2023-02-14 10:18:00,,0801.0,4.99,0.00,22.2,20.4,00.0,31.2,23.9,12.8,0000.0,0003.21,0007.02,0002.58
2023-02-14 10:19:00,,0801.1,5.01,0.00,22.2,20.3,00.0,31.2,23.8,11.9,0000.0,0003.40,0007.26,0002.87
2023-02-14 10:20:00,,0801.2,5.00,0.00,22.2,20.2,00.0,31.2,23.8,12.5,0000.0,0003.57,0007.52,0003.13
2023-02-14 10:21:00,,0801.1,5.00,0.00,22.1,20.2,00.0,31.1,23.7,12.6,0000.0,0003.74,0007.68,0003.31
2023-02-14 10:22:00,,0801.1,5.00,0.00,22.1,20.1,00.0,31.1,23.7,12.7,0000.0,0003.95,0007.94,0003.51
2023-02-14 10:23:00,,0801.2,5.00,0.00,22.1,20.6,00.0,31.1,23.8,12.5,0000.0,0004.13,0008.18,0003.68
2023-02-14 10:24:00,,0801.2,5.01,0.00,22.2,21.9,00.0,31.1,24.2,12.4,0000.0,0004.26,0008.29,0003.81
2023-02-14 10:25:00,,0801.3,5.00,0.00,22.3,22.5,00.0,31.1,24.4,12.5,0000.0,0004.46,0008.51,0003.96
2023-02-14 10:26:00,,0801.2,5.00,0.00,22.4,22.2,00.0,31.1,24.3,12.6,0000.0,0004.66,0008.67,0004.10
2023-02-14 10:27:00,,0801.3,5.01,0.00,22.4,21.9,00.0,31.2,24.3,12.5,0000.0,0004.75,0008.89,0004.18
2023-02-14 10:28:00,,0801.3,4.95,0.00,22.4,21.7,00.0,31.2,24.3,12.5,0000.0,0004.79,0009.07,0004.20
2023-02-14 10:29:00,,0801.3,5.00,0.00,22.4,21.4,00.0,31.2,24.2,12.5,0000.0,0004.73,0008.83,0004.16
2023-02-14 10:30:00,,0801.3,4.98,0.00,22.4,21.2,00.0,31.2,24.2,12.5,0000.0,0004.72,0008.59,0004.14
2023-02-14 10:31:00,,0801.3,5.00,0.00,22.4,21.1,00.0,31.2,24.1,12.5,0000.0,0004.70,0008.56,0004.13
2023-02-14 10:32:00,,0801.3,4.99,0.00,22.4,21.0,00.0,31.2,24.1,12.4,0000.0,0004.61,0008.42,0004.05
2023-02-14 10:33:00,,0801.3,5.00,0.00,22.3,20.9,00.0,31.2,24.1,12.3,0000.0,0004.49,0008.27,0003.95
2023-02-14 10:34:00,,0801.3,5.00,0.00,22.4,20.9,00.0,31.2,24.1,12.2,0000.0,0004.42,0008.18,0003.88
2023-02-14 10:35:00,,0801.2,5.00,0.00,22.3,20.8,00.0,31.2,24.1,12.3,0000.0,0004.43,0008.27,0003.86
2023-02-14 10:36:00,,0801.2,5.00,0.00,22.3,20.8,00.0,31.2,24.2,12.3,0000.0,0004.33,0008.18,0003.79
2023-02-14 10:37:00,,0801.1,4.99,0.00,22.3,20.8,00.0,31.2,24.2,12.3,0000.0,0004.20,0007.86,0003.70
2023-02-14 10:38:00,,0801.2,5.00,0.00,22.3,20.8,00.0,31.2,24.2,12.3,0000.0,0004.09,0007.60,0003.59
2023-02-14 10:39:00,,0801.1,5.00,0.00,22.3,20.8,00.0,31.2,24.2,12.1,0000.0,0003.98,0007.44,0003.49
2023-02-14 10:40:00,,0801.2,5.01,0.00,22.3,20.8,00.0,31.2,24.2,12.1,0000.0,0003.85,0007.90,0003.39
2023-02-14 10:41:00,,0801.2,5.00,0.00,22.3,20.8,00.0,31.2,24.1,12.0,0000.0,0003.71,0007.57,0003.28
2023-02-14 10:42:00,,0801.3,5.01,0.00,22.3,20.8,00.0,31.2,24.1,12.0,0000.0,0003.63,0007.38,0003.20
2023-02-14 10:43:00,,0801.3,4.99,0.00,22.3,20.8,00.0,31.2,24.1,11.9,0000.0,0003.57,0007.36,0003.14
2023-02-14 10:44:00,,0801.3,5.00,0.00,22.3,20.8,00.0,31.2,24.1,12.0,0000.0,0003.51,0007.33,0003.04
2023-02-14 10:45:00,,0801.2,5.00,0.00,22.3,20.8,00.0,31.2,24.1,11.6,0000.0,0003.44,0007.18,0002.92
2023-02-14 10:46:00,,0801.2,5.01,0.00,22.3,20.6,00.0,31.2,24.1,11.8,0000.0,0003.33,0006.77,0002.75
2023-02-14 10:47:00,,0801.1,5.00,0.00,22.3,20.5,00.0,31.2,24.0,12.0,0000.0,0003.24,0006.59,0002.60
2023-02-14 10:48:00,,0801.1,5.00,0.00,22.2,20.3,00.0,31.2,23.9,11.7,0000.0,0003.13,0006.36,0002.41
2023-02-14 10:49:00,,0801.0,5.03,0.00,22.2,20.3,00.0,31.2,23.9,12.1,0000.0,0002.90,0006.94,0002.23
2023-02-14 10:50:00,,0801.0,5.03,0.00,22.2,21.0,00.0,31.1,24.0,12.1,0000.0,0002.70,0007.27,0002.07
2023-02-14 10:51:00,,0801.2,5.00,0.00,22.3,22.1,00.0,31.1,24.3,11.9,0000.0,0002.56,0006.03,0001.93
2023-02-14 10:52:00,,0801.2,5.02,0.00,22.5,23.0,00.0,31.1,24.6,11.8,0000.0,0002.45,0005.95,0001.82
2023-02-14 10:53:00,,0801.1,4.98,0.00,22.5,22.6,00.0,31.2,24.6,11.8,0000.0,0002.33,0005.95,0001.71
2023-02-14 10:54:00,,0801.1,5.02,0.00,22.5,22.0,00.0,31.2,24.4,11.9,0000.0,0002.23,0005.75,0001.62
2023-02-14 10:55:00,,0801.0,5.01,0.00,22.5,21.6,00.0,31.2,24.3,11.9,0000.0,0002.11,0005.49,0001.52
2023-02-14 10:56:00,,0800.9,4.99,0.00,22.5,21.3,00.0,31.3,24.2,11.9,0000.0,0002.04,0005.43,0001.47
2023-02-14 10:57:00,,0800.9,5.00,0.00,22.4,21.2,00.0,31.3,24.1,12.0,0000.0,0001.98,0005.37,0001.44
2023-02-14 10:58:00,,0801.0,5.00,0.00,22.4,20.9,00.0,31.3,24.1,12.3,0000.0,0001.95,0005.66,0001.42
2023-02-14 10:59:00,,0800.8,4.99,0.00,22.4,20.8,00.0,31.3,24.0,12.3,0000.0,0001.91,0006.12,0001.41
